Flag for Germany Weather past 2 weeks in Leutkirch im Allgäu, Baden-Württemberg, Germany

Now
58 °F

Clear.


Feels Like: 58 °F
Forecast: 61 / 84 °F
Wind: 3 mph from Southeast

Location: Kempten

Current Time: Aug 4, 2015 at 5:30:00 AM

Latest Report: Aug 4, 2015 at 4:00 AM


Visibility: 17 mi

Pressure: 30.01 "Hg (27.75 "Hg at 656m altitude)

Humidity: 92%

Dew point: 55 °F

Location of Leutkirch im AllgäuLocation

Historic Weather in Leutkirch im Allgäu — Graph

°F

Leutkirch im Allgäu temperature yesterday

Maximum temperature yesterday: 83 °F (at 3:00 PM)
Minimum temperature yesterday: 51 °F (at 6:00 AM)
Average temperature yesterday: 69 °F

Past Weeks' High & Low Weather Summary

 TemperatureHumidityPressure
High88 °F (Jul 22, 2:00 PM)98% (Jul 30, 1:00 AM)30.13 "Hg (Jul 30, 1:00 AM)
Low44 °F (Jul 31, 7:00 AM)32% (Jul 21, 7:00 PM)29.64 "Hg (Jul 24, 6:00 PM)
Average65 °F68%29.92 "Hg
* Reported Jul 20 4:00 AM — Aug 4 4:00 AM, Leutkirch im Allgäu, Weather by CustomWeather, © 2015

Note: Actual official high and low records may vary slightly from our data, if they occured in-between our weather recording intervals... More about our weather records

Advertising

Leutkirch im Allgäu weather history for previous 24 hours

 ConditionsComfort  
Time TempWeatherWind HumidityBarometerVisibility
4:00 AM
Tue, Aug 4
58 °FClear.3 mph92%30.01 "Hg17 mi
3:00 AM58 °FClear.3 mph94%30.02 "Hg15 mi
2:00 AM59 °FClear.3 mph93%30.02 "Hg15 mi
1:00 AM60 °FClear.3 mph89%30.02 "Hg19 mi
10:00 PM
Mon, Aug 3
66 °FClear.2 mph79%30.01 "Hg22 mi
9:00 PM72 °FClear.No wind64%29.97 "Hg28 mi
8:00 PM80 °FSunny.2 mph41%29.93 "Hg31 mi
7:00 PM82 °FSunny.2 mph39%29.93 "Hg31 mi
6:00 PM83 °FSunny.2 mph37%29.93 "Hg19 mi
5:00 PM82 °FSunny.3 mph36%29.95 "Hg9 mi
4:00 PM82 °FSunny.2 mph33%29.96 "Hg12 mi
3:00 PM83 °FSunny.3 mph37%29.96 "Hg7 mi
2:00 PM82 °FSunny.3 mph37%29.97 "Hg14 mi
1:00 PM79 °FSunny.3 mph45%29.99 "Hg16 mi
12:00 PM78 °FSunny.3 mph45%30.01 "Hg12 mi
11:00 AM75 °FSunny.1 mph52%30.03 "Hg25 mi
10:00 AM71 °FSunny.1 mph59%30.04 "Hg22 mi
9:00 AM64 °FSunny.2 mph72%30.06 "Hg19 mi
8:00 AM60 °FSunny.2 mph80%30.07 "Hg14 mi
7:00 AM52 °FSunny.2 mph97%30.11 "Hg10 mi
6:00 AM51 °FSunny.2 mph97%30.11 "Hg6 mi
Weather by CustomWeather, © 2015

See weather overviewHow to use our weather pages